period_start,C,m1,H,J0,J1,J2,J3,J4,J5,JA,JB,JC,JD,JJ,JK,JN,#
2017-06-03 00:02:26,0.02,1.57,0.00,22.18,26.25,29.04,14.13,46.03,1030.29,2034.10,2837.91,2702.89,3069.19,600.24,606.02,43.86,0000 0000 0000 0000 000000
2017-06-03 00:07:27,0.03,1.57,0.00,22.19,26.27,29.01,14.21,46.08,1030.29,2034.03,2837.09,2702.18,3068.87,599.96,605.65,43.91,0000 0000 0000 0000 000000
2017-06-03 00:12:28,0.02,1.57,0.00,22.20,26.27,29.02,14.21,46.11,1030.29,2034.03,2836.82,2702.00,3068.07,599.90,605.50,43.96,0000 0000 0000 0000 000000
2017-06-03 00:17:29,0.06,1.57,0.00,22.22,26.28,29.04,14.22,46.04,1030.29,2034.02,2835.69,2701.63,3067.70,600.10,605.69,44.01,0000 0000 0000 0000 000000
2017-06-03 00:22:31,0.04,1.58,0.00,22.25,26.30,29.06,14.12,46.08,1030.29,2034.00,2834.44,2700.97,3066.85,600.16,605.74,44.06,0000 0000 0000 0000 000000
2017-06-03 00:27:32,0.05,1.58,0.00,22.28,26.31,29.04,14.21,46.13,1030.29,2034.01,2833.73,2700.29,3066.04,600.04,605.63,44.11,0000 0000 0000 0000 000000
2017-06-03 00:32:33,0.02,1.58,0.00,22.31,26.32,29.09,14.16,46.07,1030.29,2034.01,2832.96,2700.01,3065.63,599.76,605.30,44.16,0000 0000 0000 0000 000000
2017-06-03 00:37:35,0.03,1.58,0.00,22.33,26.33,29.10,14.20,46.07,1030.29,2034.00,2832.11,2699.73,3065.00,600.06,605.36,44.21,0000 0000 0000 0000 000000
2017-06-03 00:42:36,0.05,1.58,0.00,22.35,26.35,29.08,14.10,45.98,1030.29,2034.00,2831.28,2699.04,3064.19,600.12,605.47,44.26,0000 0000 0000 0000 000000
2017-06-03 00:47:37,0.05,1.59,0.00,22.38,26.36,29.07,14.10,45.98,1030.29,2034.00,2830.15,2698.57,3063.57,599.85,605.12,44.31,0000 0000 0000 0000 000000
2017-06-03 00:52:39,0.04,1.59,0.00,22.40,26.37,29.09,14.09,45.93,1030.29,2034.00,2829.36,2697.99,3062.76,599.91,605.13,44.36,0000 0000 0000 0000 000000
2017-06-03 00:57:40,0.06,1.59,0.00,22.43,26.40,29.12,14.10,46.08,1030.29,2034.00,2828.08,2697.26,3061.95,600.10,605.25,44.41,0000 0000 0000 0000 000000
2017-06-03 01:02:42,0.05,1.60,0.00,22.46,26.41,29.12,14.13,46.02,1030.29,2033.99,2826.98,2696.79,3061.12,599.65,604.79,44.46,0000 0000 0000 0000 000000
2017-06-03 01:07:43,0.05,1.60,0.00,22.48,26.42,29.15,14.19,46.12,1030.29,2033.97,2825.97,2696.04,3060.29,600.19,605.17,44.51,0000 0000 0000 0000 000000
2017-06-03 01:12:44,0.04,1.60,0.00,22.52,26.45,29.17,14.16,46.00,1030.30,2033.97,2825.05,2695.70,3059.75,599.92,605.00,44.56,0000 0000 0000 0000 000000
2017-06-03 01:17:45,0.04,1.60,0.00,22.54,26.46,29.16,14.15,46.04,1030.30,2033.82,2823.83,2694.97,3058.73,599.69,604.59,44.61,0000 0000 0000 0000 000000
2017-06-03 01:22:46,0.03,1.61,0.00,22.57,26.48,29.19,14.17,46.05,1030.30,2033.59,2822.78,2694.12,3057.94,600.05,604.91,44.67,0000 0000 0000 0000 000000
2017-06-03 01:27:48,0.03,1.61,0.00,22.59,26.50,29.21,14.07,46.02,1030.32,2033.25,2821.55,2693.53,3057.06,599.81,604.74,44.72,0000 0000 0000 0000 000000
2017-06-03 01:32:49,0.03,1.61,0.00,22.61,26.52,29.23,14.06,46.01,1030.37,2033.10,2820.61,2692.99,3056.21,600.14,604.97,44.77,0000 0000 0000 0000 000000
2017-06-03 01:37:50,0.06,1.61,0.00,22.66,26.54,29.23,14.15,45.99,1030.37,2033.03,2819.51,2692.24,3055.52,600.68,605.37,44.82,0000 0000 0000 0000 000000
2017-06-03 01:42:51,0.07,1.61,0.00,22.70,26.56,29.27,14.16,46.02,1030.37,2033.00,2818.27,2691.46,3054.41,600.26,604.97,44.87,0000 0000 0000 0000 000000
2017-06-03 01:47:53,0.04,1.62,0.00,22.73,26.57,29.28,14.08,45.97,1030.38,2033.00,2817.37,2690.98,3053.61,599.91,604.57,44.92,0000 0000 0000 0000 000000
2017-06-03 01:52:54,0.05,1.62,0.00,22.76,26.60,29.30,14.01,46.01,1030.52,2033.00,2816.44,2690.27,3052.87,599.72,604.44,44.97,0000 0000 0000 0000 000000
2017-06-03 01:57:56,0.06,1.62,0.00,22.80,26.62,29.32,14.09,45.96,1030.62,2033.00,2815.19,2689.38,3051.94,599.76,604.52,45.02,0000 0000 0000 0000 000000
2017-06-03 02:02:57,0.04,1.63,0.00,22.83,26.65,29.35,14.14,46.12,1030.57,2032.97,2814.16,2688.97,3051.07,600.16,604.73,45.07,0000 0000 0000 0000 000000
2017-06-03 02:07:58,0.06,1.63,0.00,22.86,26.67,29.37,14.07,45.94,1030.52,2032.95,2813.36,2688.29,3050.33,599.89,604.29,45.12,0000 0000 0000 0000 000000
2017-06-03 02:12:59,0.00,1.63,0.00,22.89,26.70,29.40,14.14,46.08,1030.42,2032.74,2812.42,2687.88,3049.60,600.14,604.50,45.17,0000 0000 0000 0000 000000
2017-06-03 02:18:00,0.02,1.63,0.00,22.93,26.72,29.42,14.12,45.95,1030.41,2032.29,2811.53,2687.09,3048.97,600.26,604.49,45.22,0000 0000 0000 0000 000000
2017-06-03 02:23:02,0.01,1.63,0.00,22.96,26.75,29.44,14.09,45.93,1030.49,2032.09,2810.82,2686.98,3048.22,600.22,604.48,45.27,0000 0000 0000 0000 000000
2017-06-03 02:28:03,0.04,1.63,0.00,22.99,26.77,29.47,14.07,45.94,1030.59,2032.03,2810.04,2686.27,3047.75,599.87,604.10,45.32,0000 0000 0000 0000 000000
2017-06-03 02:33:04,0.02,1.63,0.00,23.03,26.80,29.49,14.13,45.94,1030.67,2032.00,2809.32,2685.99,3047.01,600.12,604.33,45.37,0000 0000 0000 0000 000000
2017-06-03 02:38:05,0.06,1.64,0.00,23.05,26.83,29.51,14.14,46.11,1030.77,2032.00,2808.56,2685.38,3046.28,600.04,604.32,45.42,0000 0000 0000 0000 000000
2017-06-03 02:43:06,0.02,1.64,0.00,23.09,26.86,29.54,14.10,46.13,1030.77,2031.99,2807.80,2684.99,3045.69,599.80,603.96,45.47,0000 0000 0000 0000 000000
2017-06-03 02:48:07,0.05,1.64,0.00,23.13,26.89,29.57,14.12,46.09,1030.76,2031.97,2806.88,2684.34,3045.01,600.00,604.07,45.53,0000 0000 0000 0000 000000
2017-06-03 02:53:09,0.03,1.64,0.00,23.16,26.92,29.58,14.13,46.09,1030.77,2031.95,2805.99,2683.99,3044.18,600.20,604.17,45.58,0000 0000 0000 0000 000000
2017-06-03 02:58:10,0.02,1.64,0.00,23.20,26.95,29.62,14.08,46.26,1030.77,2031.70,2805.11,2683.35,3043.71,599.99,603.92,45.63,0000 0000 0000 0000 000000
2017-06-03 03:03:11,-0.01,1.64,0.00,23.24,26.98,29.65,14.04,46.12,1030.78,2031.24,2804.28,2682.96,3042.95,599.97,603.79,45.68,0000 0000 0000 0000 000000
2017-06-03 03:08:12,0.05,1.65,0.00,23.27,27.01,29.67,14.14,46.18,1030.78,2031.03,2803.50,2682.22,3042.12,600.40,604.15,45.73,0000 0000 0000 0000 000000
2017-06-03 03:13:13,0.02,1.65,0.00,23.31,27.04,29.71,14.09,46.10,1030.78,2031.00,2802.80,2681.97,3041.50,599.84,603.56,45.78,0000 0000 0000 0000 000000
2017-06-03 03:18:14,0.05,1.65,0.00,23.33,27.07,29.74,14.01,46.20,1030.77,2030.99,2802.01,2681.17,3040.93,599.92,603.52,45.83,0000 0000 0000 0000 000000
2017-06-03 03:23:15,0.03,1.65,0.00,23.38,27.11,29.77,14.10,46.17,1030.78,2030.97,2801.25,2680.95,3040.14,600.06,603.57,45.88,0000 0000 0000 0000 000000
2017-06-03 03:28:17,0.05,1.65,0.00,23.41,27.14,29.79,14.09,46.13,1030.78,2030.86,2800.27,2680.14,3039.54,599.87,603.35,45.93,0000 0000 0000 0000 000000
2017-06-03 03:33:18,-0.02,1.65,0.00,23.46,27.17,29.83,14.13,46.23,1030.78,2030.45,2799.51,2679.90,3038.76,600.01,603.37,45.98,0000 0000 0000 0000 000000
2017-06-03 03:38:19,0.03,1.66,0.00,23.51,27.21,29.87,14.03,46.14,1030.78,2030.06,2798.48,2679.11,3037.98,599.93,603.35,46.03,0000 0000 0000 0000 000000
2017-06-03 03:43:21,0.04,1.66,0.00,23.55,27.24,29.90,14.15,46.28,1030.78,2030.00,2797.64,2678.68,3037.14,600.54,603.67,46.08,0000 0000 0000 0000 000000
2017-06-03 03:48:22,0.05,1.66,0.00,23.60,27.28,29.93,13.99,46.21,1030.78,2030.00,2796.56,2678.02,3036.38,599.75,602.84,46.13,0000 0000 0000 0000 000000
2017-06-03 03:53:24,0.05,1.66,0.00,23.64,27.31,29.96,14.06,46.08,1030.78,2030.00,2795.69,2677.34,3035.70,600.01,603.01,46.18,0000 0000 0000 0000 000000
2017-06-03 03:58:25,0.03,1.66,0.00,23.69,27.36,30.00,14.04,46.23,1030.78,2029.99,2794.70,2676.83,3034.90,600.02,602.79,46.23,0000 0000 0000 0000 000000
2017-06-03 04:03:27,0.04,1.67,0.00,23.73,27.39,30.04,14.01,46.10,1030.78,2029.89,2793.80,2676.06,3034.04,599.93,602.78,46.28,0000 0000 0000 0000 000000
2017-06-03 04:08:28,0.00,1.67,0.00,23.77,27.43,30.06,14.00,46.10,1030.78,2029.32,2792.85,2675.35,3033.15,599.48,602.28,46.33,0000 0000 0000 0000 000000
2017-06-03 04:13:29,0.02,1.67,0.00,23.81,27.46,30.10,14.13,46.09,1030.78,2029.05,2791.94,2674.91,3032.31,600.12,602.85,46.38,0000 0000 0000 0000 000000
2017-06-03 04:18:30,0.05,1.67,0.00,23.87,27.50,30.14,13.94,45.97,1030.78,2029.00,2791.08,2674.10,3031.75,599.43,601.95,46.43,0000 0000 0000 0000 000000
2017-06-03 04:23:32,0.03,1.67,0.00,23.92,27.53,30.18,14.09,46.14,1030.77,2029.00,2790.29,2673.95,3031.03,600.32,602.75,46.48,0000 0000 0000 0000 000000
2017-06-03 04:28:33,0.04,1.67,0.00,23.96,27.57,30.23,14.00,45.98,1030.77,2028.99,2789.84,2673.19,3030.55,599.81,602.14,46.54,0000 0000 0000 0000 000000
2017-06-03 04:33:35,0.03,1.68,0.00,24.01,27.61,30.26,14.11,46.19,1030.76,2028.98,2788.91,2672.84,3029.83,599.88,602.12,46.59,0000 0000 0000 0000 000000
2017-06-03 04:38:36,0.04,1.68,0.00,24.06,27.64,30.30,14.06,46.02,1030.73,2028.90,2788.03,2672.07,3029.04,600.20,602.36,46.64,0000 0000 0000 0000 000000
2017-06-03 04:43:37,-0.01,1.68,0.00,24.10,27.68,30.34,14.14,46.02,1030.69,2028.31,2787.15,2671.63,3028.31,600.47,602.53,46.69,0000 0000 0000 0000 000000
2017-06-03 04:48:38,0.02,1.68,0.00,24.15,27.72,30.38,14.11,46.19,1030.69,2028.04,2786.20,2671.01,3027.71,600.04,602.01,46.74,0000 0000 0000 0000 000000
2017-06-03 04:53:40,0.05,1.68,0.00,24.19,27.75,30.42,13.93,45.97,1030.48,2028.00,2785.53,2670.36,3026.93,599.46,601.14,46.79,0000 0000 0000 0000 000000
2017-06-03 04:58:41,0.02,1.68,0.00,24.24,27.79,30.46,13.95,45.95,1030.34,2028.00,2784.88,2669.99,3026.10,600.09,601.66,46.84,0000 0000 0000 0000 000000
2017-06-03 05:03:42,0.05,1.69,0.00,24.28,27.83,30.49,14.08,45.99,1030.31,2028.00,2784.06,2669.37,3025.72,600.09,601.61,46.89,0000 0000 0000 0000 000000
2017-06-03 05:08:43,0.02,1.69,0.00,24.33,27.86,30.54,13.99,45.90,1030.31,2027.90,2783.36,2668.99,3025.02,599.65,601.09,46.94,0000 0000 0000 0000 000000
2017-06-03 05:13:45,0.00,1.69,0.00,24.37,27.91,30.58,13.96,45.96,1030.31,2027.38,2782.46,2668.25,3024.26,599.68,600.89,46.99,0000 0000 0000 0000 000000
2017-06-03 05:18:46,0.02,1.69,0.00,24.42,27.94,30.62,13.97,45.97,1030.31,2027.05,2781.70,2667.87,3023.65,599.90,601.08,47.04,0000 0000 0000 0000 000000
2017-06-03 05:23:47,0.04,1.69,0.00,24.47,27.98,30.66,13.99,45.92,1030.33,2027.00,2780.91,2667.08,3022.97,600.20,601.26,47.09,0000 0000 0000 0000 000000
2017-06-03 05:28:49,0.04,1.69,0.00,24.51,28.02,30.70,14.02,45.87,1030.33,2027.00,2780.06,2666.79,3022.14,600.00,600.97,47.14,0000 0000 0000 0000 000000
2017-06-03 05:33:50,0.04,1.70,0.00,24.55,28.06,30.74,13.98,45.93,1030.37,2026.99,2779.36,2666.05,3021.68,599.90,600.85,47.19,0000 0000 0000 0000 000000
2017-06-03 05:38:52,0.03,1.70,0.00,24.60,28.10,30.78,13.98,45.89,1030.38,2026.92,2778.59,2665.68,3020.99,599.94,600.86,47.24,0000 0000 0000 0000 000000
2017-06-03 05:43:54,-0.02,1.70,0.00,24.64,28.14,30.82,14.01,45.87,1030.33,2026.36,2777.77,2665.03,3020.18,600.12,600.91,47.29,0000 0000 0000 0000 000000
2017-06-03 05:48:55,0.03,1.70,0.00,24.69,28.18,30.87,13.93,45.79,1030.31,2026.05,2776.93,2664.53,3019.54,600.01,600.66,47.34,0000 0000 0000 0000 000000
2017-06-03 05:53:56,0.02,1.70,0.00,24.73,28.22,30.92,14.00,46.00,1030.31,2026.01,2776.07,2664.00,3018.94,600.30,600.86,47.39,0000 0000 0000 0000 000000
2017-06-03 05:58:58,0.06,1.70,0.00,24.76,28.26,30.95,14.00,45.93,1030.34,2026.00,2775.27,2663.30,3018.09,599.80,600.29,47.45,0000 0000 0000 0000 000000
2017-06-03 06:03:59,0.05,1.71,0.00,24.80,28.30,30.99,14.03,45.92,1030.35,2025.99,2774.26,2662.73,3017.20,600.17,600.50,47.50,0000 0000 0000 0000 000000
2017-06-03 06:09:01,0.04,1.71,0.00,24.85,28.34,31.03,13.93,45.90,1030.34,2025.87,2773.27,2662.01,3016.35,599.67,600.06,47.55,0000 0000 0000 0000 000000
2017-06-03 06:14:02,0.01,1.71,0.00,24.87,28.38,31.07,13.95,45.82,1030.39,2025.37,2772.32,2661.25,3015.71,599.92,600.23,47.60,0000 0000 0000 0000 000000
2017-06-03 06:19:03,0.02,1.71,0.00,24.93,28.42,31.12,14.00,45.79,1030.56,2025.04,2771.47,2660.73,3014.93,600.13,600.42,47.65,0000 0000 0000 0000 000000
2017-06-03 06:24:03,0.05,1.71,0.00,24.97,28.46,31.17,14.01,45.79,1030.61,2025.01,2770.43,2660.02,3014.04,600.15,600.52,47.70,0000 0000 0000 0000 000000
2017-06-03 06:29:04,0.06,1.72,0.00,25.01,28.50,31.19,13.96,45.73,1030.69,2025.00,2769.56,2659.34,3013.18,599.75,600.03,47.75,0000 0000 0000 0000 000000
2017-06-03 06:34:06,0.05,1.72,0.00,25.06,28.54,31.23,13.99,45.91,1030.60,2024.97,2768.53,2658.73,3012.35,600.30,600.43,47.80,0000 0000 0000 0000 000000
2017-06-03 06:39:07,-0.00,1.72,0.00,25.10,28.58,31.28,13.97,45.81,1030.51,2024.63,2767.64,2658.03,3011.52,599.78,599.62,47.85,0000 0000 0000 0000 000000
2017-06-03 06:44:08,-0.00,1.72,0.00,25.14,28.63,31.32,13.95,45.81,1030.37,2024.10,2766.93,2657.54,3010.92,599.89,599.71,47.90,0000 0000 0000 0000 000000
2017-06-03 06:49:09,0.04,1.72,0.00,25.19,28.67,31.37,13.97,45.84,1030.31,2024.02,2765.98,2656.94,3010.04,599.76,599.31,47.95,0000 0000 0000 0000 000000
2017-06-03 06:54:11,0.07,1.72,0.00,25.23,28.71,31.40,14.01,45.88,1030.31,2024.00,2764.92,2656.10,3009.07,599.94,599.39,48.00,0000 0000 0000 0000 000000
2017-06-03 06:59:12,0.05,1.73,0.00,25.27,28.75,31.44,14.01,45.80,1030.31,2023.99,2764.03,2655.55,3008.16,600.34,599.74,48.05,0000 0000 0000 0000 000000
2017-06-03 07:04:13,0.03,1.73,0.00,25.31,28.79,31.48,13.94,45.86,1030.31,2023.93,2763.17,2654.99,3007.62,599.70,599.13,48.10,0000 0000 0000 0000 000000
2017-06-03 07:09:14,-0.00,1.73,0.00,25.36,28.83,31.52,14.01,45.91,1030.30,2023.49,2762.19,2654.24,3007.00,600.06,599.35,48.15,0000 0000 0000 0000 000000
2017-06-03 07:14:15,0.01,1.73,0.00,25.38,28.87,31.56,13.98,45.83,1030.31,2023.06,2761.38,2653.91,3006.20,599.80,598.88,48.20,0000 0000 0000 0000 000000
2017-06-03 07:19:16,0.05,1.73,0.00,25.41,28.91,31.59,14.01,45.66,1030.30,2023.00,2760.57,2653.12,3005.65,600.25,599.43,48.25,0000 0000 0000 0000 000000
2017-06-03 07:24:17,0.01,1.73,0.00,25.42,28.94,31.62,13.98,45.75,1030.30,2023.00,2759.95,2652.97,3005.02,600.36,599.51,48.30,0000 0000 0000 0000 000000
2017-06-03 07:29:18,0.06,1.74,0.00,25.45,28.97,31.65,14.02,45.68,1030.29,2022.99,2759.00,2652.25,3004.36,599.66,598.79,48.35,0000 0000 0000 0000 000000
2017-06-03 07:34:20,0.04,1.74,0.00,25.48,29.00,31.67,14.00,45.74,1030.29,2022.98,2757.95,2651.78,3003.62,600.15,599.25,48.40,0000 0000 0000 0000 000000
2017-06-03 07:39:21,0.04,1.74,0.00,25.51,29.02,31.69,13.98,45.63,1030.29,2022.97,2757.03,2651.03,3002.88,600.11,598.99,48.46,0000 0000 0000 0000 000000
2017-06-03 07:44:22,0.05,1.74,0.00,25.54,29.05,31.70,13.92,45.78,1030.29,2022.94,2756.11,2650.59,3002.07,599.80,598.67,48.51,0000 0000 0000 0000 000000
2017-06-03 07:49:24,0.02,1.75,0.00,25.55,29.07,31.72,13.95,45.73,1030.29,2022.80,2755.23,2650.00,3001.41,600.18,599.11,48.56,0000 0000 0000 0000 000000
2017-06-03 07:54:25,0.01,1.75,0.00,25.57,29.09,31.73,13.88,45.63,1030.29,2022.34,2754.37,2649.30,3000.71,599.72,598.51,48.61,0000 0000 0000 0000 000000
2017-06-03 07:59:26,0.01,1.75,0.00,25.60,29.10,31.75,14.00,45.62,1030.29,2022.10,2753.50,2648.96,3000.01,600.07,598.87,48.66,0000 0000 0000 0000 000000
2017-06-03 08:04:27,0.05,1.75,0.00,25.62,29.12,31.76,13.92,45.64,1030.29,2022.01,2752.76,2648.18,2999.30,599.93,598.58,48.71,0000 0000 0000 0000 000000
2017-06-03 08:09:28,0.01,1.75,0.00,25.65,29.14,31.77,13.95,45.70,1030.29,2022.01,2752.01,2648.00,2998.90,600.10,598.79,48.76,0000 0000 0000 0000 000000
2017-06-03 08:14:30,0.05,1.75,0.00,25.68,29.15,31.79,14.00,45.64,1030.29,2022.00,2751.27,2647.54,2998.10,600.06,598.82,48.81,0000 0000 0000 0000 000000
2017-06-03 08:19:31,0.02,1.75,0.00,25.70,29.16,31.80,13.93,45.49,1030.29,2022.00,2750.82,2647.01,2997.75,599.53,598.14,48.86,0000 0000 0000 0000 000000
2017-06-03 08:24:32,0.03,1.76,0.00,25.71,29.17,31.79,13.90,45.53,1030.29,2022.00,2750.04,2646.85,2997.07,599.71,598.37,48.91,0000 0000 0000 0000 000000
2017-06-03 08:29:34,0.04,1.76,0.00,25.74,29.19,31.81,13.94,45.54,1030.29,2021.99,2749.41,2646.13,2996.72,599.93,598.43,48.96,0000 0000 0000 0000 000000
2017-06-03 08:34:35,0.02,1.76,0.00,25.76,29.20,31.81,13.90,45.59,1030.29,2021.99,2748.77,2645.99,2996.05,599.94,598.50,49.01,0000 0000 0000 0000 000000
2017-06-03 08:39:37,0.04,1.76,0.00,25.77,29.20,31.82,13.89,45.59,1030.29,2021.98,2748.01,2645.48,2995.72,599.86,598.31,49.06,0000 0000 0000 0000 000000
2017-06-03 08:44:38,0.03,1.76,0.00,25.78,29.22,31.83,13.92,45.44,1030.29,2021.97,2747.33,2645.01,2995.02,600.03,598.50,49.11,0000 0000 0000 0000 000000
2017-06-03 08:49:39,0.02,1.76,0.00,25.80,29.22,31.84,13.92,45.56,1030.29,2021.90,2746.77,2644.92,2994.56,599.69,598.13,49.16,0000 0000 0000 0000 000000
2017-06-03 08:54:41,0.04,1.77,0.00,25.81,29.23,31.83,13.88,45.52,1030.28,2021.88,2746.03,2644.18,2994.00,600.14,598.45,49.21,0000 0000 0000 0000 000000
2017-06-03 08:59:42,0.03,1.77,0.00,25.82,29.24,31.84,13.97,45.50,1030.27,2021.89,2745.24,2643.99,2993.48,600.39,598.73,49.26,0000 0000 0000 0000 000000
2017-06-03 09:04:43,0.02,1.77,0.00,25.79,29.25,31.84,13.93,45.50,1030.28,2021.68,2744.60,2643.51,2993.01,600.07,598.47,49.31,0000 0000 0000 0000 000000
2017-06-03 09:09:45,0.03,1.77,0.00,25.64,29.25,31.86,13.96,45.63,1030.28,2021.71,2743.89,2643.02,2992.54,600.24,598.87,49.36,0000 0000 0000 0000 000000
2017-06-03 09:14:46,0.05,1.77,0.00,25.51,29.24,31.89,13.97,45.58,1030.29,2021.63,2742.82,2642.42,2991.71,599.97,598.96,49.42,0000 0000 0000 0000 000000
2017-06-03 09:19:47,0.05,1.78,0.00,25.46,29.22,31.89,13.94,45.56,1030.27,2021.83,2742.01,2642.00,2991.02,599.70,598.79,49.47,0000 0000 0000 0000 000000
2017-06-03 09:24:48,0.05,1.78,0.00,25.41,29.21,31.89,13.86,45.59,1030.24,2021.90,2741.19,2641.66,2990.52,599.64,598.79,49.52,0000 0000 0000 0000 000000
2017-06-03 09:29:50,0.04,1.78,0.00,25.38,29.19,31.84,13.90,45.52,1030.16,2021.96,2740.43,2641.03,2990.01,599.92,599.04,49.57,0000 0000 0000 0000 000000
2017-06-03 09:34:51,0.01,1.78,0.00,25.34,29.16,31.83,13.90,45.60,1029.96,2021.98,2740.00,2641.00,2989.87,600.23,599.40,49.62,0000 0000 0000 0000 000000
2017-06-03 09:39:52,0.03,1.79,0.00,25.32,29.14,31.81,14.02,45.69,1029.85,2021.98,2739.42,2640.98,2989.10,600.03,599.05,49.67,0000 0000 0000 0000 000000
2017-06-03 09:44:54,0.01,1.79,0.00,25.37,29.11,31.82,13.94,45.59,1029.82,2021.99,2739.01,2640.78,2989.00,599.99,598.83,49.72,0000 0000 0000 0000 000000
2017-06-03 09:49:55,0.02,1.79,0.00,25.52,29.10,31.86,14.05,45.68,1029.82,2021.99,2738.73,2640.20,2988.96,600.26,598.83,49.77,0000 0000 0000 0000 000000
2017-06-03 09:54:56,0.02,1.79,0.00,25.61,29.07,31.76,14.02,45.51,1029.82,2021.99,2738.06,2640.02,2988.48,600.26,598.68,49.82,0000 0000 0000 0000 000000
2017-06-03 09:59:58,0.00,1.79,0.00,25.67,29.07,31.60,14.01,45.70,1029.82,2021.99,2737.93,2640.00,2988.03,600.24,598.57,49.87,0000 0000 0000 0000 000000
2017-06-03 10:04:59,0.02,1.79,0.00,25.74,29.07,31.56,13.99,45.58,1029.82,2022.00,2737.11,2639.93,2987.95,600.36,598.56,49.92,0000 0000 0000 0000 000000
2017-06-03 10:10:00,0.06,1.79,0.00,25.80,29.07,31.52,13.95,45.60,1029.81,2022.00,2736.65,2639.22,2987.14,599.75,597.82,49.97,0000 0000 0000 0000 000000
2017-06-03 10:15:01,0.01,1.79,0.00,25.84,29.07,31.53,13.88,45.65,1029.81,2022.00,2736.01,2639.00,2986.95,599.87,597.89,50.02,0000 0000 0000 0000 000000
2017-06-03 10:20:03,0.05,1.80,0.00,25.87,29.07,31.55,13.83,45.49,1029.80,2022.00,2735.20,2638.66,2986.16,599.86,597.74,50.07,0000 0000 0000 0000 000000
2017-06-03 10:25:04,0.03,1.80,0.00,25.86,29.08,31.57,13.93,45.45,1029.80,2022.00,2734.46,2638.03,2985.82,600.14,598.33,50.12,0000 0000 0000 0000 000000
2017-06-03 10:30:05,0.03,1.80,0.00,25.75,29.10,31.60,13.89,45.48,1029.80,2022.00,2733.71,2637.92,2985.08,599.83,598.05,50.17,0000 0000 0000 0000 000000
2017-06-03 10:35:06,0.06,1.80,0.00,25.70,29.10,31.62,13.92,45.52,1029.78,2022.00,2732.68,2637.14,2984.52,600.02,598.23,50.22,0000 0000 0000 0000 000000
2017-06-03 10:40:08,0.06,1.81,0.00,25.70,29.10,31.63,13.85,45.48,1029.74,2022.00,2731.50,2636.44,2983.72,599.73,598.00,50.28,0000 0000 0000 0000 000000
2017-06-03 10:45:09,0.03,1.81,0.00,25.71,29.10,31.63,13.89,45.43,1029.77,2022.00,2730.47,2635.97,2982.99,599.88,598.15,50.33,0000 0000 0000 0000 000000
2017-06-03 10:50:10,0.07,1.81,0.00,25.76,29.10,31.64,13.92,45.46,1029.80,2022.00,2729.36,2635.10,2981.95,599.91,598.20,50.38,0000 0000 0000 0000 000000
2017-06-03 10:55:11,0.09,1.82,0.00,25.79,29.11,31.64,13.87,45.41,1029.80,2021.99,2727.71,2634.07,2980.79,599.76,597.89,50.43,0000 0000 0000 0000 000000
2017-06-03 11:00:13,0.08,1.82,0.00,25.80,29.12,31.65,13.89,45.44,1029.80,2021.99,2726.19,2633.18,2979.71,600.11,598.19,50.48,0000 0000 0000 0000 000000
2017-06-03 11:05:14,0.10,1.83,0.00,25.84,29.12,31.68,13.90,45.45,1029.80,2021.99,2724.25,2631.94,2978.27,599.90,597.92,50.53,0000 0000 0000 0000 000000
2017-06-03 11:10:15,0.06,1.83,0.00,25.96,29.12,31.71,13.91,45.30,1029.74,2021.99,2723.04,2631.07,2977.34,599.99,597.72,50.58,0000 0000 0000 0000 000000
2017-06-03 11:15:17,0.09,1.83,0.00,26.09,29.12,31.73,13.85,45.13,1029.70,2021.99,2721.68,2630.31,2976.32,599.28,596.76,50.63,0000 0000 0000 0000 000000
2017-06-03 11:20:18,0.06,1.84,0.00,26.07,29.15,31.76,13.91,45.40,1029.76,2021.99,2720.56,2629.61,2975.47,600.23,597.59,50.68,0000 0000 0000 0000 000000
2017-06-03 11:25:20,0.04,1.84,0.00,26.02,29.15,31.77,13.91,45.57,1029.74,2021.98,2719.46,2629.00,2974.52,600.05,597.64,50.73,0000 0000 0000 0000 000000
2017-06-03 11:30:21,0.04,1.84,0.00,25.96,29.17,31.78,13.88,45.41,1029.66,2021.99,2718.76,2628.44,2974.01,600.20,597.90,50.78,0000 0000 0000 0000 000000
2017-06-03 11:35:23,0.03,1.84,0.00,25.91,29.18,31.80,13.89,45.48,1029.52,2021.99,2717.90,2628.00,2973.42,599.66,597.33,50.83,0000 0000 0000 0000 000000
2017-06-03 11:40:24,0.05,1.85,0.00,25.85,29.20,31.82,13.97,45.41,1029.37,2021.99,2717.04,2627.51,2972.89,600.28,598.05,50.88,0000 0000 0000 0000 000000
2017-06-03 11:45:25,0.04,1.85,0.00,25.81,29.21,31.83,13.85,45.39,1029.38,2021.95,2716.12,2626.99,2972.07,599.86,597.82,50.93,0000 0000 0000 0000 000000
2017-06-03 11:50:26,0.07,1.85,0.00,25.77,29.22,31.85,13.90,45.45,1029.35,2021.92,2715.19,2626.32,2971.41,599.98,597.93,50.98,0000 0000 0000 0000 000000
2017-06-03 11:55:28,0.02,1.85,0.00,25.73,29.23,31.88,13.95,45.39,1029.32,2021.93,2714.33,2626.00,2970.97,600.15,597.83,51.03,0000 0000 0000 0000 000000
2017-06-03 12:00:29,0.04,1.86,0.00,25.69,29.25,31.89,14.00,45.54,1029.31,2021.84,2713.75,2625.58,2970.25,599.98,598.01,51.08,0000 0000 0000 0000 000000
2017-06-03 12:05:30,0.02,1.86,0.00,25.66,29.25,31.91,13.96,45.48,1029.31,2021.85,2713.08,2625.10,2970.01,600.12,598.24,51.13,0000 0000 0000 0000 000000
2017-06-03 12:10:31,-0.01,1.86,0.00,25.63,29.26,31.93,13.95,45.52,1029.31,2021.71,2712.97,2625.00,2969.90,600.37,598.54,51.18,0000 0000 0000 0000 000000
2017-06-03 12:15:32,-0.01,1.86,0.00,25.59,29.27,31.94,13.99,45.60,1029.31,2021.36,2712.25,2624.95,2969.18,600.47,598.76,51.23,0000 0000 0000 0000 000000
2017-06-03 12:20:34,0.01,1.86,0.00,25.57,29.27,31.96,13.90,45.52,1029.28,2021.15,2711.99,2624.47,2969.00,599.78,598.05,51.29,0000 0000 0000 0000 000000
2017-06-03 12:25:35,0.02,1.86,0.00,25.55,29.27,31.97,13.94,45.46,1029.27,2021.10,2711.57,2624.05,2968.88,600.30,598.60,51.34,0000 0000 0000 0000 000000
2017-06-03 12:30:36,0.01,1.86,0.00,25.52,29.27,31.96,13.99,45.61,1029.25,2021.05,2711.04,2624.00,2968.30,600.14,598.48,51.39,0000 0000 0000 0000 000000
2017-06-03 12:35:37,0.00,1.86,0.00,25.50,29.27,31.97,13.99,45.45,1029.24,2021.04,2710.99,2623.99,2968.03,600.05,598.46,51.44,0000 0000 0000 0000 000000
2017-06-03 12:40:39,0.01,1.86,0.00,25.47,29.27,31.99,13.92,45.43,1029.19,2021.03,2710.55,2623.90,2968.00,600.26,598.71,51.49,0000 0000 0000 0000 000000
2017-06-03 12:45:40,0.03,1.86,0.00,25.44,29.27,31.98,13.94,45.69,1029.09,2021.03,2710.02,2623.33,2967.94,599.57,598.06,51.54,0000 0000 0000 0000 000000
2017-06-03 12:50:42,0.01,1.86,0.00,25.41,29.27,32.01,14.00,45.67,1029.20,2021.02,2710.00,2623.06,2967.54,600.29,598.83,51.59,0000 0000 0000 0000 000000
2017-06-03 12:55:43,0.02,1.86,0.00,25.40,29.27,31.98,13.91,45.58,1029.22,2021.01,2709.41,2623.00,2967.03,599.77,598.43,51.64,0000 0000 0000 0000 000000